TimeEDT,TemperatureF,Dew PointF,Humidity,Sea Level PressureIn,VisibilityMPH,Wind Direction,Wind SpeedMPH,Gust SpeedMPH,PrecipitationIn,Events,Conditions,WindDirDegrees,DateUTC
12:53 AM,60.1,59.0,96,29.91,7.0,Calm,Calm,-,N/A,,Clear,0,2013-06-18 04:53:00
1:53 AM,61.0,59.0,93,29.90,6.0,Calm,Calm,-,N/A,,Partly Cloudy,0,2013-06-18 05:53:00
2:53 AM,60.1,59.0,96,29.89,5.0,Calm,Calm,-,N/A,,Clear,0,2013-06-18 06:53:00
3:53 AM,59.0,57.9,96,29.89,7.0,Calm,Calm,-,N/A,,Clear,0,2013-06-18 07:53:00
4:53 AM,59.0,57.9,96,29.90,6.0,Calm,Calm,-,N/A,,Clear,0,2013-06-18 08:53:00
5:29 AM,59.0,57.2,94,29.90,2.0,Calm,Calm,-,N/A,,Clear,0,2013-06-18 09:29:00
5:36 AM,59.0,57.2,94,29.90,1.2,Calm,Calm,-,N/A,,Clear,0,2013-06-18 09:36:00
5:42 AM,57.2,57.2,100,29.90,3.0,Calm,Calm,-,N/A,,Clear,0,2013-06-18 09:42:00
5:53 AM,57.9,57.0,97,29.91,3.0,Calm,Calm,-,N/A,,Clear,0,2013-06-18 09:53:00
6:53 AM,64.9,62.1,90,29.91,9.0,Calm,Calm,-,N/A,,Clear,0,2013-06-18 10:53:00
7:04 AM,66.2,62.6,88,29.91,10.0,Calm,Calm,-,N/A,,Partly Cloudy,0,2013-06-18 11:04:00
7:53 AM,70.0,64.0,81,29.92,10.0,SSE,4.6,-,N/A,,Partly Cloudy,160,2013-06-18 11:53:00
8:53 AM,73.0,63.0,71,29.92,10.0,Calm,Calm,-,N/A,,Clear,0,2013-06-18 12:53:00
9:06 AM,73.4,62.6,69,29.93,10.0,Calm,Calm,-,N/A,,Scattered Clouds,0,2013-06-18 13:06:00
9:53 AM,75.0,63.0,66,29.92,10.0,East,3.5,-,N/A,,Partly Cloudy,90,2013-06-18 13:53:00
10:53 AM,77.0,62.1,60,29.91,10.0,East,4.6,-,N/A,,Clear,80,2013-06-18 14:53:00
11:53 AM,75.0,63.0,66,29.91,10.0,SSE,5.8,-,N/A,,Clear,160,2013-06-18 15:53:00
12:53 PM,73.9,64.0,71,29.90,10.0,SE,6.9,-,N/A,,Mostly Cloudy,140,2013-06-18 16:53:00
1:53 PM,73.9,61.0,64,29.88,10.0,Variable,6.9,-,N/A,,Clear,0,2013-06-18 17:53:00
2:53 PM,72.0,63.0,73,29.86,10.0,SE,11.5,-,N/A,,Scattered Clouds,140,2013-06-18 18:53:00
3:05 PM,71.6,64.4,78,29.86,9.0,SE,10.4,-,N/A,,Mostly Cloudy,140,2013-06-18 19:05:00
3:53 PM,66.9,62.1,84,29.87,10.0,SSE,8.1,-,N/A,,Overcast,160,2013-06-18 19:53:00
4:53 PM,66.0,62.1,87,29.89,10.0,Calm,Calm,-,N/A,,Overcast,0,2013-06-18 20:53:00
5:43 PM,64.4,57.2,77,29.90,10.0,NNE,16.1,20.7,N/A,,Overcast,20,2013-06-18 21:43:00
5:53 PM,64.0,57.0,78,29.90,10.0,NE,15.0,-,N/A,,Overcast,40,2013-06-18 21:53:00
6:01 PM,64.4,57.2,77,29.90,10.0,NNE,12.7,-,N/A,,Overcast,30,2013-06-18 22:01:00
6:24 PM,62.6,55.4,77,29.90,10.0,NE,8.1,-,N/A,,Mostly Cloudy,50,2013-06-18 22:24:00
6:53 PM,61.0,57.9,90,29.88,8.0,NNE,9.2,-,0.00,Rain,Light Rain,20,2013-06-18 22:53:00
7:53 PM,61.0,55.9,83,29.88,10.0,NW,6.9,-,0.00,,Partly Cloudy,320,2013-06-18 23:53:00
8:53 PM,60.1,55.9,86,29.91,8.0,ENE,5.8,-,0.01,Rain,Light Rain,60,2013-06-19 00:53:00
9:53 PM,59.0,57.0,93,29.91,10.0,NNE,6.9,-,0.01,Rain,Light Rain,20,2013-06-19 01:53:00
10:53 PM,59.0,57.0,93,29.89,7.0,NNE,10.4,-,0.00,Rain,Light Rain,20,2013-06-19 02:53:00
11:53 PM,59.0,57.0,93,29.87,10.0,North,6.9,-,0.00,Rain,Light Rain,350,2013-06-19 03:53:00